contact:dominique.lefevre@mio.osupytheas.fr, maurice.libes@osupytheas.fr
Project:EMSO Ligure-ouest http://www.emso-fr.org/EMSO-France
Sensor Aquadopp, line 13 Serial AQD14315 
DOI : "https://doi.org/10.17882/74513; https://doi.org/10.17882/83244" 
Title:EMSO Ligure Ouest : Data ligne ALBATROSS capteur AQUADOPP - deploiement 2021
Id,Date,Profondeur,Latitude,Longitude,X_East,Y_North,Z_Up,Amplitude_X,Amplitude_Y,Amplitude_Z,Batterie,SoundSpeed,Heading,Pitch,Roll,Pressure,Temperature,Speed,Direction
, , m, degrees North, degrees East, m.s-1, m.s-1,m.s-1, 1, 1, 1, Volt, m.s-1, degree, degree, degree, dbar, degree_C, m.s-1, degree
13,2022-02-09T22:00:00,2400.0,42.79,6.0312,0.023,-0.023,-0.027,71.0,65.0,67.0,12.3,1504.8,110.3,-0.3,-0.2,2394.563,13.33,0.032,135.0
13,2022-02-09T22:30:00,2400.0,42.79,6.0312,0.018,-0.037,-0.024,73.0,64.0,68.0,12.3,1504.8,110.5,-0.2,-0.1,2394.608,13.33,0.041,154.1
13,2022-02-09T23:00:00,2400.0,42.79,6.0312,0.053,-0.037,0.012,72.0,62.0,65.0,12.3,1504.8,110.9,-0.4,-0.3,2394.578,13.33,0.064,124.9
13,2022-02-09T23:30:00,2400.0,42.79,6.0312,0.036,-0.018,-0.043,71.0,66.0,68.0,12.2,1504.8,116.5,-0.2,-0.2,2394.65,13.33,0.04,116.6
13,2022-02-10T00:00:00,2400.0,42.79,6.0312,0.032,-0.008,0.009,71.0,67.0,68.0,12.3,1504.8,113.6,-0.3,-0.4,2394.639,13.33,0.032,104.0
13,2022-02-10T00:30:00,2400.0,42.79,6.0312,0.041,-0.029,0.002,72.0,65.0,67.0,12.3,1504.8,113.9,-0.3,-0.3,2394.66,13.33,0.05,125.3
13,2022-02-10T01:00:00,2400.0,42.79,6.0312,0.041,-0.018,-0.02,69.0,60.0,64.0,12.3,1504.8,114.0,-0.3,-0.2,2394.647,13.33,0.044,113.7
13,2022-02-10T01:30:00,2400.0,42.79,6.0312,0.04,-0.019,-0.023,69.0,61.0,65.0,12.3,1504.8,115.5,-0.4,-0.3,2394.662,13.33,0.044,115.4
13,2022-02-10T02:00:00,2400.0,42.79,6.0312,0.044,-0.024,-0.024,70.0,63.0,63.0,12.3,1504.8,115.8,-0.3,-0.3,2394.632,13.33,0.05,118.6
13,2022-02-10T02:30:00,2400.0,42.79,6.0312,0.039,-0.037,-0.009,70.0,61.0,64.0,12.3,1504.8,117.9,-0.3,-0.1,2394.622,13.33,0.053,133.5
13,2022-02-10T03:00:00,2400.0,42.79,6.0312,0.022,-0.022,-0.005,70.0,62.0,65.0,12.3,1504.8,133.1,-0.2,-0.3,2394.676,13.33,0.031,135.0
13,2022-02-10T03:30:00,2400.0,42.79,6.0312,0.044,-0.033,-0.021,69.0,63.0,65.0,12.3,1504.8,120.1,-0.3,-0.3,2394.715,13.33,0.055,126.9
13,2022-02-10T04:00:00,2400.0,42.79,6.0312,0.057,-0.056,-0.025,70.0,64.0,64.0,12.3,1504.8,126.3,-0.5,-0.2,2394.688,13.33,0.079,134.5
13,2022-02-10T04:30:00,2400.0,42.79,6.0312,0.049,-0.024,0.002,72.0,65.0,66.0,12.3,1504.8,108.9,-0.2,-0.2,2394.628,13.33,0.054,116.1
13,2022-02-10T05:00:00,2400.0,42.79,6.0312,0.049,-0.042,0.008,72.0,68.0,67.0,12.3,1504.8,118.6,-0.6,-0.3,2394.622,13.33,0.064,130.6
13,2022-02-10T05:30:00,2400.0,42.79,6.0312,0.042,-0.022,-0.029,70.0,65.0,66.0,12.3,1504.8,115.3,-0.3,-0.2,2394.642,13.33,0.047,117.6
13,2022-02-10T06:00:00,2400.0,42.79,6.0312,0.021,-0.02,-0.038,69.0,63.0,64.0,12.3,1504.8,112.5,-0.1,-0.3,2394.616,13.33,0.028,133.6
13,2022-02-10T06:30:00,2400.0,42.79,6.0312,0.064,-0.026,0.002,72.0,63.0,66.0,12.3,1504.8,97.3,-0.5,-0.2,2394.667,13.33,0.069,112.1
13,2022-02-10T07:00:00,2400.0,42.79,6.0312,0.046,-0.043,-0.008,74.0,64.0,66.0,12.3,1504.8,121.6,-0.5,-0.4,2394.59,13.33,0.062,133.1
13,2022-02-10T07:30:00,2400.0,42.79,6.0312,0.055,-0.028,-0.019,75.0,68.0,71.0,12.3,1504.8,124.2,-0.4,-0.2,2394.694,13.33,0.061,117.0
13,2022-02-10T08:00:00,2400.0,42.79,6.0312,0.013,-0.013,0.005,76.0,67.0,71.0,12.3,1504.8,98.8,-0.4,0.0,2394.631,13.33,0.018,135.0
13,2022-02-10T08:30:00,2400.0,42.79,6.0312,0.057,-0.03,-0.024,77.0,69.0,70.0,12.2,1504.8,103.4,-0.7,-0.2,2394.607,13.33,0.064,117.8
13,2022-02-10T09:00:00,2400.0,42.79,6.0312,0.015,-0.038,-0.01,76.0,68.0,69.0,12.3,1504.8,112.9,-0.7,-0.3,2394.656,13.33,0.04,158.5
13,2022-02-10T09:30:00,2400.0,42.79,6.0312,0.024,-0.047,-0.002,77.0,70.0,71.0,12.3,1504.8,111.7,-0.5,-0.2,2394.658,13.33,0.052,153.0
13,2022-02-10T10:00:00,2400.0,42.79,6.0312,0.029,-0.018,-0.003,80.0,68.0,74.0,12.3,1504.8,116.8,-0.2,-0.3,2394.644,13.33,0.034,121.8
13,2022-02-10T10:30:00,2400.0,42.79,6.0312,0.014,-0.031,-0.034,79.0,69.0,73.0,12.3,1504.8,114.8,-0.8,-0.2,2394.588,13.33,0.034,155.7
13,2022-02-10T11:00:00,2400.0,42.79,6.0312,0.02,-0.012,-0.027,75.0,69.0,70.0,12.3,1504.8,112.8,-0.8,-0.2,2394.631,13.33,0.023,121.0
13,2022-02-10T11:30:00,2400.0,42.79,6.0312,0.018,-0.011,-0.027,78.0,71.0,73.0,12.3,1504.8,113.0,-0.4,-0.2,2394.616,13.33,0.021,121.4
13,2022-02-10T12:00:00,2400.0,42.79,6.0312,0.027,-0.033,0.001,77.0,68.0,70.0,12.3,1504.8,111.6,0.4,-0.2,2394.619,13.33,0.042,140.7
13,2022-02-10T12:30:00,2400.0,42.79,6.0312,0.016,-0.038,-0.009,78.0,71.0,70.0,12.3,1504.8,110.7,0.0,-0.3,2394.681,13.33,0.041,157.2
13,2022-02-10T13:00:00,2400.0,42.79,6.0312,0.012,-0.012,0.013,74.0,71.0,71.0,12.3,1504.8,111.6,-0.3,-0.3,2394.664,13.33,0.016,135.0
13,2022-02-10T13:30:00,2400.0,42.79,6.0312,0.022,-0.025,0.009,78.0,69.0,72.0,12.3,1504.8,112.2,-0.1,-0.1,2394.589,13.33,0.033,138.7
13,2022-02-10T14:00:00,2400.0,42.79,6.0312,0.033,-0.023,0.01,79.0,69.0,72.0,12.3,1504.8,112.1,-0.3,-0.2,2394.61,13.33,0.04,124.9
13,2022-02-10T14:30:00,2400.0,42.79,6.0312,0.025,-0.015,-0.011,77.0,68.0,71.0,12.3,1504.8,112.5,-0.2,-0.2,2394.644,13.33,0.029,121.0
13,2022-02-10T15:00:00,2400.0,42.79,6.0312,0.036,-0.003,-0.011,77.0,67.0,71.0,12.3,1504.8,109.1,-0.4,-0.3,2394.636,13.33,0.036,94.8
13,2022-02-10T15:30:00,2400.0,42.79,6.0312,0.034,-0.027,0.01,74.0,66.0,71.0,12.3,1504.8,107.7,-0.3,-0.3,2394.663,13.33,0.043,128.5
13,2022-02-10T16:00:00,2400.0,42.79,6.0312,0.034,-0.034,-0.014,74.0,69.0,70.0,12.2,1504.8,109.9,-0.4,-0.3,2394.667,13.33,0.048,135.0
13,2022-02-10T16:30:00,2400.0,42.79,6.0312,0.042,-0.034,-0.035,77.0,67.0,71.0,12.3,1504.8,110.0,-0.1,-0.2,2394.644,13.33,0.054,129.0
13,2022-02-10T17:00:00,2400.0,42.79,6.0312,0.034,-0.005,-0.004,74.0,71.0,70.0,12.3,1504.8,109.4,-0.3,-0.3,2394.598,13.33,0.034,98.4
13,2022-02-10T17:30:00,2400.0,42.79,6.0312,0.018,-0.017,0.026,78.0,71.0,71.0,12.2,1504.8,109.3,-0.2,-0.1,2394.63,13.33,0.024,133.4
13,2022-02-10T18:00:00,2400.0,42.79,6.0312,0.025,-0.015,-0.058,77.0,69.0,70.0,12.3,1504.8,109.3,-0.2,-0.2,2394.649,13.33,0.029,121.0
13,2022-02-10T18:30:00,2400.0,42.79,6.0312,0.024,-0.019,-0.016,76.0,70.0,69.0,12.3,1504.8,111.6,-0.2,-0.2,2394.637,13.33,0.03,128.4
13,2022-02-10T19:00:00,2400.0,42.79,6.0312,0.024,-0.024,-0.01,80.0,68.0,71.0,12.3,1504.8,113.7,-0.1,-0.3,2394.614,13.33,0.033,135.0
13,2022-02-10T19:30:00,2400.0,42.79,6.0312,0.034,-0.017,-0.029,80.0,70.0,71.0,12.2,1504.8,109.6,-0.3,-0.2,2394.601,13.33,0.038,116.6
13,2022-02-10T20:00:00,2400.0,42.79,6.0312,0.036,-0.013,-0.017,75.0,69.0,70.0,12.3,1504.8,107.8,-0.1,-0.2,2394.594,13.33,0.038,109.9
13,2022-02-10T20:30:00,2400.0,42.79,6.0312,0.021,-0.001,-0.011,78.0,67.0,71.0,12.3,1504.8,110.0,-0.4,-0.3,2394.564,13.33,0.021,92.7
13,2022-02-10T21:00:00,2400.0,42.79,6.0312,0.047,-0.025,-0.018,78.0,69.0,73.0,12.3,1504.8,109.1,-0.2,-0.3,2394.556,13.33,0.053,118.0
13,2022-02-10T21:30:00,2400.0,42.79,6.0312,0.042,0.0,0.01,76.0,68.0,72.0,12.3,1504.8,108.4,-0.2,-0.2,2394.535,13.33,0.042,90.0
